Theta_e
312 308 307 307 307 307 307 307 309 310 311 312 312 313 313 312 313 313 313 312 312 310 309 308 308 308 309 311 312 308 307 308 309 308 308 309 309 312 315 315 315 312 310 308 309 307 309 308 307 308 308 307 307 307 305 304 301 298 295 293 292 291 291 292 293 292 290 288 289 289 289 290 290 290 289 290 290 291 291 290 290 290 290 290 290
310 307 305 306 305 306 306 306 307 308 309 311 311 312 312 312 312 313 312 310 310 310 310 311 311 310 310 311 307 304 304 306 307 305 304 304 306 307 310 313 313 311 308 307 306 305 303 304 304 305 306 306 308 307 303 300 298 295 293 291 293 292 291 293 293 293 290 287 286 286 287 288 289 288 288 288 290 290 290 290 290 289 289 289 289
308 307 307 304 306 305 305 306 307 308 310 310 312 312 312 311 312 313 311 309 310 311 310 310 311 312 312 308 307 304 303 304 306 303 303 303 304 305 306 308 309 308 308 306 303 302 303 302 303 304 304 305 304 303 300 297 295 294 293 292 291 292 292 294 294 296 291 290 290 287 284 285 286 286 287 287 288 289 289 289 289 288 288 289 289
307 307 306 304 304 304 304 305 306 308 309 310 311 311 311 311 311 312 310 310 309 309 309 310 307 305 304 304 303 305 303 298 299 298 298 299 300 302 303 304 305 306 306 304 303 301 302 302 302 302 304 303 302 301 298 296 295 295 295 295 294 291 291 293 297 296 294 291 287 291 288 289 284 285 285 285 287 287 288 287 288 288 288 289 289
306 307 307 305 303 303 304 305 306 307 308 309 310 310 311 311 311 311 310 310 309 308 308 303 301 300 299 299 301 299 299 298 298 297 297 298 297 298 300 301 302 303 303 301 299 300 301 302 301 301 302 303 303 301 299 296 296 297 297 296 295 294 291 292 293 295 295 297 296 291 289 288 289 286 284 283 286 286 286 287 287 287 288 288 288
306 306 306 306 304 304 304 305 305 307 308 309 311 311 311 311 311 311 310 309 308 308 305 303 301 299 298 300 301 300 299 298 299 299 297 296 298 298 297 298 299 300 301 301 300 300 299 299 300 300 302 302 302 301 300 298 298 299 298 298 297 296 294 293 292 295 295 296 295 293 298 294 288 285 286 282 284 286 286 285 286 287 287 287 288
306 305 305 304 305 304 304 304 305 306 308 310 310 310 311 311 311 311 309 308 308 306 303 302 302 301 302 304 304 302 301 302 305 304 302 301 300 297 296 295 296 297 297 298 299 298 298 298 300 302 302 302 301 301 300 300 300 301 300 299 298 297 297 294 294 293 292 292 293 294 294 294 291 286 285 284 280 283 285 285 285 286 287 287 287
307 306 306 305 304 304 303 304 304 305 308 309 309 310 310 310 311 310 309 308 307 304 302 303 303 302 303 306 306 305 305 305 305 306 304 300 298 296 294 293 293 294 295 296 295 295 296 297 298 299 300 301 301 302 302 303 303 302 301 301 301 299 298 297 296 293 290 292 292 292 292 295 293 294 292 287 287 282 282 284 285 285 286 287 287
306 306 306 305 304 304 303 304 304 306 307 308 308 309 309 310 310 309 308 307 306 303 302 303 304 304 305 307 306 306 308 307 305 301 299 297 295 293 293 292 292 292 293 293 294 294 294 295 296 297 298 298 300 302 303 303 302 301 300 301 300 299 299 301 297 293 293 293 290 291 292 292 292 293 293 292 287 285 283 281 282 284 285 286 286
304 303 304 304 304 303 304 304 304 305 307 309 309 309 309 309 309 308 307 306 303 302 301 302 303 304 304 306 306 305 302 299 300 298 296 295 294 293 293 291 291 290 291 292 292 292 292 293 294 296 297 299 299 302 302 301 301 301 300 301 300 299 300 300 298 295 296 294 293 292 291 290 289 288 289 289 289 290 285 283 284 282 282 284 286
304 303 302 301 301 301 302 301 302 304 306 308 308 308 308 308 308 307 307 305 303 302 302 301 303 304 305 305 306 304 300 299 298 296 295 293 293 292 291 292 291 290 290 290 290 291 291 291 293 296 298 298 299 300 300 300 300 299 299 299 299 299 298 299 298 297 296 294 294 292 291 290 290 288 288 288 288 287 287 285 285 285 285 284 285
303 302 303 301 299 299 300 300 301 303 305 306 307 307 307 308 308 307 307 305 302 301 301 301 301 303 303 305 305 304 299 298 299 297 294 293 293 293 293 293 291 290 289 288 289 289 290 290 293 295 296 297 298 299 299 299 299 298 298 298 298 299 298 297 298 296 295 294 294 293 292 293 293 292 291 290 289 288 289 286 285 286 286 286 287
303 304 303 302 301 301 299 300 301 302 303 305 306 306 306 307 307 306 306 305 302 301 301 301 301 301 301 303 304 303 299 298 298 296 294 294 294 294 292 291 290 289 288 288 288 289 289 290 292 294 295 296 297 297 297 298 297 297 297 297 297 297 296 296 295 295 294 293 292 293 293 292 291 292 292 291 292 291 290 285 286 286 283 284 285
303 303 303 303 303 302 301 301 301 302 303 304 305 305 306 306 306 306 306 306 303 301 299 300 301 302 302 302 301 299 296 297 297 295 294 295 295 295 294 293 291 291 290 289 289 288 289 291 292 294 295 295 295 296 296 296 296 295 295 295 296 295 294 295 295 294 293 294 292 290 290 290 290 291 291 291 290 289 287 286 284 284 284 284 285
304 303 303 303 302 301 301 301 301 302 303 304 305 305 305 305 305 305 305 305 303 302 301 300 302 302 302 302 299 297 295 295 295 296 295 295 296 295 294 294 293 293 291 291 290 289 289 291 292 293 293 293 293 294 294 294 294 294 294 294 293 292 292 292 293 292 292 291 291 290 290 290 289 289 290 290 290 290 289 287 284 281 280 282 282
305 303 303 301 301 300 300 300 301 302 303 304 305 305 305 305 305 305 305 305 304 301 301 302 302 301 300 299 299 297 295 295 295 295 295 297 296 293 293 292 293 292 292 291 290 290 289 290 291 292 291 292 292 292 292 292 292 292 292 291 290 291 291 291 290 290 290 290 290 290 289 288 288 288 289 288 288 289 289 288 287 285 282 280 281
304 304 304 303 300 299 299 300 300 302 303 304 304 305 305 305 305 304 304 305 304 301 300 301 302 301 299 299 299 297 296 295 294 295 295 295 293 292 293 293 293 292 291 290 289 289 289 290 290 290 290 290 290 290 290 291 291 291 290 290 289 289 290 289 289 289 289 289 289 289 288 286 286 286 286 287 287 287 288 288 288 286 286 283 282
304 304 302 301 300 299 299 299 300 301 302 304 304 305 305 305 305 304 304 303 303 302 300 300 300 299 299 298 298 297 296 295 295 295 294 292 292 291 291 291 291 291 290 289 288 288 289 288 290 289 289 289 289 289 289 289 290 289 289 288 288 288 288 287 287 287 287 287 286 286 286 285 285 286 286 286 287 286 286 286 286 286 286 284 284
303 302 301 299 299 299 299 299 300 301 302 304 305 305 305 305 305 304 304 304 304 303 301 300 300 299 298 297 297 296 296 295 295 293 292 291 290 290 290 290 289 289 288 288 287 287 287 289 289 289 288 288 288 288 288 288 289 288 287 286 286 287 286 285 285 284 284 285 284 284 285 285 285 285 285 285 285 285 286 286 285 286 285 286 284
307 305 303 301 300 299 299 298 298 299 301 303 304 304 304 304 304 303 304 304 304 303 301 299 298 297 298 297 296 296 296 295 293 291 290 290 290 289 290 289 289 288 288 288 287 287 287 288 288 288 288 287 287 287 287 287 287 287 286 285 285 285 284 284 283 283 283 283 283 283 283 283 283 283 283 284 284 284 285 285 285 285 285 284 284
306 305 303 301 299 298 298 298 298 299 300 301 303 303 303 303 303 303 302 302 302 302 301 299 298 297 297 295 295 295 295 294 291 291 290 290 290 289 290 290 288 287 287 287 287 287 288 288 287 287 287 286 286 286 286 286 286 286 285 284 284 284 284 283 283 282 282 283 283 282 282 282 282 282 282 282 283 283 283 284 284 284 283 283 283
304 303 301 300 298 297 296 296 297 297 298 299 301 302 302 302 302 302 302 302 302 302 299 298 296 296 296 295 295 295 294 292 290 289 289 289 288 288 288 287 286 287 286 286 287 287 287 287 287 286 286 286 286 285 285 285 285 284 283 284 283 283 283 283 283 282 282 282 281 281 281 280 280 281 281 282 282 282 282 282 282 282 282 282 283
302 301 300 298 298 298 296 296 296 296 297 298 299 300 301 302 302 302 301 301 302 301 299 297 296 295 294 295 294 293 291 290 289 289 288 287 287 286 286 286 285 286 286 286 286 286 287 287 286 286 286 285 285 284 285 285 284 284 283 282 283 283 283 283 282 282 282 281 280 280 279 279 279 279 280 281 281 281 281 282 282 282 281 282 282
300 299 297 296 296 296 295 295 296 296 296 297 298 299 300 301 301 301 300 301 301 301 299 297 296 294 294 293 293 292 291 289 288 288 288 287 287 287 287 286 286 285 284 285 285 286 286 286 285 285 285 284 284 284 284 284 284 283 282 282 282 283 283 283 283 282 281 280 280 279 278 278 278 278 279 279 280 280 281 281 281 281 281 281 281
299 299 298 296 294 294 295 296 296 296 296 297 297 298 299 299 300 300 300 300 300 300 299 297 296 294 292 292 292 291 290 288 287 286 286 286 286 286 286 284 284 283 284 284 284 284 284 285 285 284 284 284 284 283 283 282 283 283 283 282 282 282 283 283 283 281 280 279 279 279 278 277 278 278 279 279 279 279 280 280 280 280 280 281 280
300 300 298 296 296 296 295 295 296 296 296 296 297 297 297 298 299 299 299 299 299 299 297 296 294 293 292 291 291 290 289 288 287 287 286 285 285 285 285 284 283 283 283 283 283 283 284 284 285 284 284 284 283 283 282 283 283 283 283 282 282 282 282 282 281 280 279 279 279 279 278 278 278 278 279 279 279 279 279 279 279 280 280 280 279
299 299 300 297 295 295 296 295 296 295 296 296 296 296 296 297 297 298 298 298 298 297 296 295 293 293 292 290 289 289 289 288 288 287 285 285 285 285 284 284 283 283 283 282 282 282 283 284 284 284 283 283 283 283 283 283 283 282 282 282 282 282 281 280 279 278 278 278 278 278 278 278 278 279 279 279 279 279 279 279 279 279 279 279 279
296 296 295 296 298 297 296 295 295 295 295 295 296 296 296 296 296 297 297 298 297 295 294 294 293 292 293 290 289 288 288 288 288 287 284 284 284 284 284 284 283 283 283 282 282 282 283 283 283 282 282 283 283 283 283 282 282 282 282 281 281 281 280 279 278 278 278 277 278 278 278 279 279 279 279 280 280 279 279 278 279 279 279 278 278
296 296 297 297 297 298 297 296 295 294 294 294 294 295 295 296 296 296 296 296 296 294 294 293 292 292 292 291 290 288 287 287 286 285 284 284 284 283 283 283 283 283 282 282 282 282 282 282 282 282 281 281 281 282 282 281 281 282 282 281 281 281 280 278 277 277 277 277 277 278 278 279 279 280 280 280 280 280 279 279 279 279 278 278 278
300 300 300 299 299 299 297 296 295 294 294 293 294 294 294 294 295 295 295 295 295 293 293 292 292 292 292 291 290 289 287 286 285 284 285 284 284 283 283 283 283 283 282 282 282 282 282 282 281 281 281 280 280 281 282 283 283 282 282 282 282 281 280 278 277 277 277 277 277 278 278 279 280 280 280 280 281 281 281 280 279 279 278 278 277
302 301 301 301 299 298 297 296 296 295 295 293 294 294 294 294 295 295 294 294 294 293 293 292 291 291 291 291 290 289 287 285 285 285 284 283 283 283 283 282 283 283 282 282 282 282 282 282 281 280 280 280 280 280 283 284 284 284 282 282 281 280 279 278 278 277 277 277 277 278 278 279 279 279 279 280 281 281 282 282 281 281 280 279 277
304 305 304 303 302 300 298 298 298 297 296 294 294 294 293 293 294 294 294 293 293 292 292 292 291 291 291 290 289 288 286 285 285 284 284 284 283 283 283 282 282 282 282 282 281 281 281 282 281 281 280 280 279 282 284 285 285 284 283 281 281 280 279 278 278 278 278 278 278 278 278 277 278 278 279 279 280 281 282 282 282 282 281 281 281
306 306 306 306 304 302 301 301 300 300 297 295 295 293 293 294 293 294 293 292 292 292 292 291 291 290 290 289 288 287 286 285 285 285 284 283 283 282 282 282 282 282 282 281 281 281 281 281 280 280 279 279 279 282 284 285 285 284 283 281 281 281 280 279 279 278 278 279 279 278 277 277 277 279 279 279 279 279 280 282 282 282 282 282 282
306 306 305 305 304 303 302 301 301 300 297 296 294 294 294 294 294 293 292 291 291 291 291 290 290 289 289 288 287 286 286 285 285 285 284 284 283 283 283 283 282 282 282 281 281 281 281 281 280 280 280 279 278 282 284 285 285 285 284 282 281 280 280 280 279 279 279 279 279 279 279 278 278 277 278 278 278 278 279 279 280 280 281 282 283
304 304 302 301 302 302 301 299 297 296 296 294 293 293 293 293 292 291 291 290 290 290 290 290 289 289 288 287 287 287 286 285 285 285 284 283 283 283 283 283 282 282 281 281 281 281 281 281 280 280 279 279 279 283 285 286 285 285 285 283 280 280 280 279 279 279 279 279 280 280 279 279 279 278 278 278 278 278 279 279 279 279 280 281 282
304 303 302 302 301 301 299 298 297 295 293 293 293 292 292 291 291 290 290 290 289 289 289 289 288 288 287 287 286 286 286 285 285 284 284 283 283 283 282 283 282 282 282 282 281 281 281 281 280 279 279 278 278 283 285 286 286 286 286 282 280 279 279 279 279 280 280 280 280 280 279 278 278 279 280 281 280 279 279 277 277 277 278 279 280
303 302 302 302 299 298 297 295 292 293 292 292 292 291 291 289 289 289 289 288 288 288 288 287 287 287 287 287 287 286 286 285 285 284 283 283 283 282 282 282 281 282 281 280 280 281 280 280 279 279 278 278 278 282 285 285 286 286 286 283 281 280 280 280 280 280 280 280 279 279 279 278 279 279 280 282 283 282 279 277 277 276 276 277 277
301 298 295 293 292 291 290 292 291 290 290 290 290 290 289 288 288 288 288 287 287 287 288 288 287 287 287 287 286 286 285 285 284 283 284 283 283 283 282 282 281 280 280 280 280 280 279 279 279 279 278 278 278 281 284 285 286 286 286 284 283 282 282 282 282 281 281 280 280 280 280 279 279 280 281 282 282 282 279 278 277 276 276 276 276
295 295 294 293 291 290 289 289 289 288 288 289 289 288 288 287 287 287 287 287 287 288 287 287 287 287 286 286 286 286 285 284 284 284 284 284 283 282 282 282 282 281 280 280 280 279 279 279 279 278 280 278 278 280 284 285 285 286 286 285 285 284 284 284 284 284 284 283 282 282 282 281 280 281 282 282 282 281 280 279 278 277 276 276 277
289 288 290 289 288 287 287 288 288 288 287 288 288 288 286 286 286 287 286 286 287 287 288 288 287 287 286 286 286 285 285 284 284 284 284 284 283 282 281 281 281 281 280 280 279 279 278 278 278 278 279 279 278 278 282 285 285 286 286 285 285 284 284 284 285 285 285 284 283 282 283 284 283 283 283 283 283 283 280 279 279 278 277 276 279
289 288 286 287 287 289 288 287 287 287 287 287 287 287 286 286 286 286 285 287 287 288 287 287 286 286 285 285 285 285 284 284 284 284 284 283 283 282 281 281 280 280 280 279 279 279 278 278 278 279 279 279 279 278 280 284 285 286 286 285 284 284 284 285 285 285 285 285 284 284 283 283 284 284 284 284 284 283 283 281 280 278 279 279 281
286 286 286 287 286 286 285 285 285 286 286 287 286 285 285 285 285 285 286 287 286 287 286 286 285 285 285 284 284 285 284 284 284 284 283 283 283 282 282 282 281 280 279 279 279 279 279 278 278 278 278 278 280 280 279 283 284 285 285 286 285 284 285 285 284 284 284 283 283 283 283 283 283 284 284 284 284 284 284 282 281 283 283 283 281
285 285 285 286 285 284 284 284 285 285 286 286 285 284 284 284 285 285 286 286 286 286 285 285 284 284 283 283 283 283 283 283 283 283 283 282 282 282 282 282 281 280 279 279 278 278 278 278 278 278 278 278 279 280 280 280 283 284 285 286 286 285 286 285 283 282 282 282 283 283 283 283 283 283 283 284 284 284 283 283 284 284 284 284 283
286 286 285 285 285 284 283 284 284 285 285 285 284 283 283 284 284 285 285 285 285 285 284 283 283 283 282 283 283 283 283 283 283 283 282 282 282 281 281 281 281 280 280 279 278 278 278 278 277 278 278 278 279 279 280 281 281 283 284 285 285 286 286 284 284 283 283 283 282 282 282 282 282 283 283 283 283 283 282 283 284 284 284 283 282
285 284 284 284 284 283 283 283 284 284 284 284 284 283 282 282 283 284 284 284 283 283 283 282 282 282 282 283 283 283 283 283 283 283 282 281 281 281 280 281 280 280 280 279 278 278 278 278 278 278 279 279 279 279 278 279 281 281 282 283 284 284 284 285 283 283 283 283 283 283 283 283 283 283 283 283 283 283 283 283 283 283 282 281 281
283 283 283 283 283 283 282 281 282 282 283 283 284 284 283 283 283 284 284 283 283 282 282 282 282 282 282 282 282 282 282 283 283 283 283 282 281 281 281 280 280 280 280 280 279 279 279 279 279 280 280 279 279 278 278 277 278 280 280 281 282 282 282 282 282 282 282 282 283 282 282 281 281 281 280 279 279 279 280 280 280 280 280 280 280
283 283 282 282 282 281 281 281 279 279 280 281 281 282 283 283 283 283 283 283 282 282 281 281 281 281 281 282 282 282 282 282 282 283 283 283 282 282 281 280 281 281 280 281 280 279 279 279 279 280 279 279 278 278 278 277 277 277 278 278 279 279 280 280 280 280 280 280 280 279 278 278 278 278 277 277 277 277 277 277 278 278 279 279 279
282 282 282 282 282 281 280 279 278 277 277 278 278 279 280 281 282 283 282 282 282 281 281 281 281 281 282 282 282 277 280 282 282 282 282 282 282 282 281 281 281 281 280 280 280 279 279 279 279 279 278 278 277 277 277 277 277 276 276 277 276 276 276 276 277 277 277 277 276 276 275 276 276 275 276 276 276 276 277 277 277 277 277 278 278
280 281 282 282 281 280 279 277 275 275 275 275 275 274 276 280 280 281 282 282 281 279 280 280 281 281 281 281 281 281 282 281 281 281 281 281 281 281 281 280 279 281 282 281 280 280 279 280 280 279 278 277 277 277 277 278 277 277 276 276 275 275 276 276 276 277 276 276 276 276 276 276 276 275 275 276 276 276 276 277 276 276 276 277 276
280 281 281 280 279 277 276 275 274 274 274 273 273 272 272 275 278 280 281 280 279 279 279 279 280 280 279 280 280 280 280 280 279 278 277 276 276 280 280 280 278 278 279 280 280 279 279 279 278 278 278 278 278 278 278 278 278 278 278 278 278 277 277 277 278 279 279 277 277 276 276 276 275 275 275 275 275 276 276 276 276 277 277 277 276
279 279 279 278 277 275 274 273 272 272 272 271 271 271 272 273 276 279 279 279 279 279 278 278 278 279 278 279 278 278 278 278 278 278 278 277 278 279 280 279 279 279 279 280 280 279 279 278 278 277 277 278 278 278 279 279 279 279 280 280 280 281 281 281 281 279 277 276 276 275 275 276 275 275 275 275 275 275 275 275 275 276 276 276 276
Wind_Speed
1 1 4 7 8 8 9 9 10 11 12 13 13 13 12 11 10 11 9 9 8 7 7 7 7 6 4 7 6 4 3 3 3 3 2 2 2 2 4 5 7 8 7 6 8 7 7 8 9 9 9 8 8 10 10 12 12 11 9 7 13 11 7 7 9 12 12 9 7 7 6 5 5 4 4 3 3 3 3 3 3 4 4 5 6
5 6 6 6 7 9 9 9 11 13 14 15 15 14 13 12 12 11 9 9 8 8 7 8 7 7 5 7 4 4 4 5 5 3 2 1 2 1 2 4 8 8 7 7 6 6 7 6 7 8 8 8 7 7 9 9 9 10 10 7 4 11 9 10 10 11 8 10 11 8 6 5 4 4 4 4 4 4 3 3 3 4 4 5 5
9 10 7 7 8 9 9 9 11 13 13 14 14 13 13 12 12 12 11 10 9 10 8 8 7 6 6 5 5 4 1 1 1 2 3 3 3 2 2 2 4 6 8 7 7 6 8 8 8 8 8 8 10 11 9 8 8 11 12 12 8 5 9 9 12 7 8 9 9 10 7 7 5 4 4 4 3 3 3 3 3 4 4 4 4
13 11 9 8 9 9 9 10 11 11 11 12 13 14 12 12 12 12 12 11 10 8 9 6 4 4 4 4 4 3 4 3 3 2 2 2 3 2 3 2 4 5 7 7 7 6 8 9 9 9 8 8 9 12 10 11 10 9 8 10 13 11 9 9 7 4 7 12 10 6 8 6 7 5 5 3 3 3 3 3 2 3 3 3 3
12 10 8 8 10 11 12 10 9 11 12 13 14 13 10 14 13 13 11 12 10 9 9 7 7 6 5 5 5 6 5 4 4 3 2 1 1 3 4 3 4 5 6 7 7 5 6 7 9 9 9 8 9 10 11 11 12 11 12 12 13 13 11 10 6 5 9 4 3 7 4 4 4 8 7 3 2 2 2 2 2 2 2 3 3
13 12 9 7 9 9 9 10 11 11 12 13 12 13 11 11 13 13 11 10 10 11 10 8 8 7 7 7 8 6 6 7 8 8 7 6 6 3 2 2 3 3 5 7 8 6 4 3 5 8 9 8 7 9 9 10 11 11 11 12 12 11 13 12 9 6 6 2 5 5 2 1 8 9 7 4 2 1 1 1 1 1 2 2 3
8 9 9 9 9 9 11 12 13 13 12 10 11 12 12 12 13 13 11 9 10 10 11 9 9 8 10 9 7 7 7 6 5 5 6 6 5 5 4 2 2 3 3 5 7 7 5 5 6 8 9 7 8 8 9 12 11 11 10 11 11 10 10 11 12 9 4 5 3 3 2 2 7 12 7 7 5 4 3 3 2 1 1 2 3
6 8 9 9 9 10 11 11 11 11 10 10 11 11 13 13 13 13 10 10 9 9 11 10 10 8 9 9 8 8 8 8 8 7 5 5 5 5 4 3 2 2 4 3 5 6 6 6 5 5 7 8 9 8 10 11 10 8 10 11 10 10 12 10 10 9 12 7 4 4 1 3 8 1 8 7 5 8 6 3 2 3 3 3 3
7 6 7 7 8 8 8 9 10 10 10 11 11 11 11 11 12 12 12 10 9 11 11 11 9 10 9 8 8 6 6 5 6 5 5 5 5 4 4 4 3 3 2 3 4 6 6 7 7 6 5 6 8 8 8 10 12 12 11 9 10 10 10 8 9 10 10 7 7 4 4 5 5 1 3 1 3 7 5 8 7 4 4 4 4
3 5 5 4 4 5 6 6 8 9 9 10 10 10 11 11 12 13 13 10 9 11 11 11 11 9 9 7 9 7 4 5 5 6 5 5 6 6 5 5 4 3 3 3 4 4 5 5 5 7 8 8 8 8 8 9 9 10 11 10 9 9 9 7 9 9 9 6 7 7 6 5 4 3 4 4 2 4 6 10 9 9 7 6 5
1 2 3 3 1 3 5 7 8 9 9 10 11 11 11 11 12 13 13 10 11 12 13 13 11 10 9 8 8 9 6 7 7 6 6 6 6 6 6 5 5 4 4 3 3 4 5 5 5 6 7 7 8 8 9 10 9 9 8 8 9 10 8 7 7 7 7 8 7 7 8 9 9 8 9 8 6 5 5 7 8 8 6 6 6
1 2 2 2 2 3 4 7 8 10 10 11 11 11 11 12 12 14 13 12 11 11 12 11 10 8 7 9 8 7 8 7 9 9 9 9 8 8 6 5 5 4 3 3 4 4 4 4 4 5 6 7 7 8 8 9 9 8 8 8 8 8 6 7 7 7 7 6 6 5 5 6 3 3 5 7 6 5 6 7 8 6 2 3 5
3 3 2 2 4 5 6 7 8 11 11 13 12 12 12 14 14 15 17 14 11 11 12 12 11 9 9 7 8 7 8 8 8 8 9 9 8 8 8 7 6 6 5 6 5 6 5 5 6 7 6 6 6 7 7 8 8 8 8 8 7 9 7 7 7 7 6 6 6 2 1 1 1 3 3 5 3 3 4 7 4 6 5 5 4
5 4 4 4 4 5 6 8 9 9 11 12 13 13 13 13 16 16 16 17 12 12 12 12 13 12 11 10 7 6 7 7 8 8 8 7 8 9 10 10 10 10 10 10 8 8 6 6 6 6 5 6 6 6 6 6 6 7 7 7 6 5 3 4 3 5 3 3 3 3 1 1 2 1 2 2 3 4 5 6 6 3 1 3 3
5 7 7 6 6 6 6 6 6 7 10 11 11 13 13 13 15 16 16 17 15 13 12 14 12 11 10 9 8 8 8 8 7 6 6 7 7 8 7 6 7 8 9 8 9 9 7 6 7 6 5 5 5 5 4 5 5 4 5 4 4 3 4 4 3 4 4 4 3 3 3 2 2 3 2 3 2 2 3 6 7 7 3 3 4
5 6 7 7 7 6 5 5 6 7 10 10 12 11 12 13 14 15 16 16 16 13 13 13 12 9 11 11 11 10 7 7 6 6 6 8 7 6 7 6 5 6 6 8 9 8 8 7 6 6 6 5 5 6 6 6 5 5 4 4 4 2 4 5 5 5 5 5 4 3 3 3 3 3 3 3 3 2 2 4 5 6 5 4 7
5 7 6 5 5 6 6 7 7 8 9 10 11 11 13 12 12 14 14 14 16 13 13 13 12 12 13 12 11 10 9 9 8 9 9 7 6 6 6 5 3 3 5 6 9 7 7 8 8 7 7 6 6 6 6 6 6 5 5 6 6 5 5 5 5 5 5 4 4 3 4 4 3 3 3 3 2 2 2 2 1 2 3 5 3
7 6 4 4 5 7 8 8 9 10 11 11 12 11 11 11 12 14 15 17 17 14 14 13 12 11 11 12 11 10 9 9 8 9 7 6 6 6 3 3 6 5 4 4 6 7 7 8 7 7 7 7 7 7 6 6 7 5 6 6 5 6 6 5 5 5 4 3 4 4 4 4 3 2 3 3 2 2 2 2 2 1 2 4 5
6 6 5 5 6 7 8 8 8 9 9 9 10 10 10 11 12 14 16 17 17 14 12 10 11 8 8 9 10 9 8 8 7 6 6 7 7 6 7 5 5 6 6 6 7 6 7 8 8 8 7 7 7 7 7 7 6 7 7 6 5 6 6 6 5 5 4 4 5 4 3 3 3 3 3 2 2 2 2 2 1 1 2 3 4
5 4 4 4 5 7 7 8 8 9 9 8 10 9 12 12 12 13 13 13 15 16 13 12 11 9 9 8 9 9 10 9 8 8 7 7 8 7 7 8 8 7 7 7 7 8 9 10 8 8 8 8 8 7 7 7 7 6 6 6 5 6 7 6 6 4 4 4 4 4 3 3 3 3 3 2 2 1 1 2 2 2 2 3 3
4 2 2 4 5 5 6 6 6 6 6 7 8 10 11 11 12 13 15 15 15 15 14 11 9 10 10 11 10 9 10 9 7 9 8 9 8 8 8 8 7 7 7 8 8 8 9 9 10 9 9 9 9 8 7 7 6 7 6 6 7 6 7 5 6 6 4 4 4 4 4 3 3 4 3 3 2 2 2 1 1 2 3 3 4
2 2 2 2 2 4 6 6 6 6 7 9 9 9 11 12 11 12 13 13 14 14 11 10 9 9 11 11 11 10 9 8 9 8 8 7 7 7 6 6 8 6 7 8 8 7 8 9 9 9 9 9 8 8 8 7 7 8 7 4 6 6 7 6 6 6 5 3 3 4 4 4 3 3 3 3 3 3 3 3 3 3 3 3 3
3 3 2 2 3 4 6 8 8 9 8 9 9 10 10 11 11 11 13 14 13 13 11 11 11 9 11 11 11 10 8 8 9 9 9 8 6 7 7 9 8 8 7 7 7 8 9 9 8 9 9 9 9 8 7 7 7 8 8 6 5 6 7 8 7 7 6 5 5 4 4 4 2 3 3 2 2 2 2 3 4 3 4 3 3
5 3 3 3 3 4 4 6 7 8 9 10 10 10 10 11 12 11 13 14 13 12 11 13 13 11 11 11 11 10 11 10 9 8 10 10 8 8 9 9 8 6 8 6 7 8 8 9 8 9 9 8 9 8 8 7 8 8 8 8 7 6 6 6 7 7 7 6 6 5 4 4 4 3 3 2 2 2 3 3 4 3 4 4 3
4 5 5 3 4 7 7 5 6 7 7 9 9 10 11 11 11 12 11 12 12 11 11 12 12 12 11 10 11 10 11 10 9 7 8 8 8 9 8 7 7 8 7 6 5 6 8 8 8 9 9 9 9 9 8 8 7 7 8 8 8 7 6 6 6 6 7 6 6 4 5 5 5 3 3 3 3 4 3 3 4 4 4 3 2
3 4 3 6 7 7 5 5 5 7 7 8 9 10 10 10 11 11 11 12 12 11 11 11 11 13 11 12 11 11 12 12 11 10 9 8 7 9 9 7 8 8 8 7 7 7 8 10 9 9 9 9 9 9 9 9 8 8 7 7 7 7 7 6 6 6 6 5 5 5 5 5 5 5 4 4 4 5 4 5 5 4 4 3 3
5 5 4 4 8 11 7 7 6 6 7 7 9 10 10 10 11 12 11 11 11 9 10 11 11 13 12 12 11 11 10 10 11 11 8 7 9 9 10 10 9 9 10 9 7 8 7 9 10 9 9 9 9 8 8 8 9 8 8 8 8 7 6 5 5 5 5 5 4 4 5 5 5 5 4 5 5 5 4 5 5 5 4 4 4
3 5 7 10 10 8 6 7 7 8 7 8 8 8 10 10 11 11 11 11 8 10 11 12 12 13 11 12 11 10 9 10 10 9 7 7 7 8 9 8 8 9 9 9 10 9 8 8 8 8 8 8 8 8 8 8 8 8 8 7 7 7 7 6 5 5 5 4 4 4 4 4 5 4 5 4 4 5 4 5 5 4 4 5 6
8 11 10 10 10 8 8 7 7 7 9 9 8 8 9 9 9 10 10 12 10 11 12 12 12 13 12 10 10 9 7 8 8 7 7 8 9 8 7 8 8 8 7 7 8 7 8 8 7 7 7 6 7 8 7 8 9 9 8 8 8 7 7 6 6 5 4 4 4 4 4 5 5 6 6 4 4 4 4 4 5 5 6 6 5
10 9 9 10 11 8 8 6 7 10 10 10 9 9 10 11 11 11 11 11 11 12 12 12 12 12 10 10 10 8 9 8 8 9 9 9 8 7 7 7 8 7 7 8 6 6 8 9 10 9 7 5 4 4 8 11 9 9 9 7 7 8 7 7 6 6 4 4 4 4 4 7 7 8 8 10 11 11 11 8 6 6 5 5 5
8 8 9 9 8 8 7 7 9 11 11 10 9 8 8 9 9 10 11 11 11 11 12 12 12 11 10 10 9 10 9 10 9 8 7 8 7 7 6 5 6 7 7 8 8 8 8 8 8 8 10 9 8 8 16 16 16 15 11 9 8 7 6 6 5 6 6 5 5 5 5 6 7 8 9 13 13 15 15 15 15 13 9 7 6
12 12 11 10 10 9 8 8 9 10 9 8 8 8 8 10 10 10 10 10 11 11 12 11 11 10 10 10 10 10 10 9 8 8 8 6 8 8 7 9 9 8 7 6 9 10 10 8 7 7 7 7 6 10 17 16 16 15 9 6 5 6 6 6 6 6 5 5 5 5 5 4 6 8 7 7 11 15 16 16 17 17 17 18 16
15 16 14 12 12 10 7 7 7 7 7 8 8 8 10 10 9 9 9 10 12 11 11 11 10 10 10 10 10 10 10 8 6 6 6 9 10 10 10 9 10 10 8 9 8 8 8 5 5 5 6 5 3 10 13 14 13 13 13 9 5 6 6 6 6 6 6 5 5 5 5 5 5 10 8 7 7 8 13 17 18 18 19 20 21
16 15 14 11 6 6 6 8 7 6 5 6 8 9 7 7 8 8 10 10 11 11 10 10 10 10 10 10 9 8 7 7 6 6 6 6 7 9 7 7 7 6 6 7 7 7 5 7 6 7 6 6 7 12 16 17 17 17 17 12 6 7 6 5 7 7 6 6 7 6 6 6 6 7 7 8 8 9 8 9 10 12 13 16 20
20 15 10 9 9 9 7 6 7 5 4 5 6 6 6 7 8 9 10 10 10 10 10 10 10 10 9 7 9 9 8 7 7 6 6 7 7 6 7 6 6 8 9 9 9 8 7 5 4 5 5 6 6 15 18 18 18 18 19 13 5 5 5 4 5 5 6 7 8 7 8 7 6 7 7 8 8 9 8 7 7 9 11 13 12
13 11 10 11 12 11 8 6 2 3 4 5 6 6 7 7 8 9 9 9 9 9 9 9 9 8 9 9 8 7 8 7 8 7 7 7 7 8 8 6 5 5 4 4 4 3 5 6 6 7 6 5 5 15 17 19 19 18 18 7 5 5 5 4 4 6 7 7 7 8 7 8 8 8 10 16 14 9 8 10 10 11 10 11 12
10 10 12 7 3 3 2 2 3 3 5 6 6 7 8 8 8 7 8 9 9 9 9 7 9 9 9 10 10 9 7 8 7 7 8 7 8 9 7 6 7 6 6 7 7 5 4 6 7 7 7 4 3 11 15 15 16 16 12 5 6 5 4 5 5 6 6 6 6 7 8 8 9 10 12 16 17 15 10 12 12 14 12 9 12
10 4 2 2 2 2 2 3 4 4 5 6 7 8 8 8 8 8 9 9 9 9 9 9 9 7 9 9 9 7 7 7 8 9 8 7 5 4 6 8 8 8 8 7 6 6 6 6 7 6 5 5 4 7 13 14 14 16 10 6 6 6 5 6 6 6 4 5 8 13 12 10 10 11 11 15 16 14 11 12 11 14 16 13 12
4 4 4 4 3 3 4 4 6 6 6 7 8 9 8 8 8 9 9 9 10 9 9 8 9 9 7 9 6 8 9 9 8 7 8 8 8 8 6 6 6 5 6 5 6 6 6 5 7 9 10 9 7 7 13 13 15 16 10 5 5 5 5 6 5 5 5 6 8 12 18 15 13 12 14 16 17 15 11 12 9 10 12 15 13
2 1 1 2 4 5 5 6 6 6 7 8 9 8 7 8 9 9 9 9 9 9 9 8 8 8 7 5 6 9 8 9 9 8 7 7 6 7 7 7 7 5 6 5 6 6 9 7 7 7 8 9 10 9 12 18 18 18 16 7 5 5 6 6 6 6 7 9 7 8 11 16 19 20 19 20 19 20 13 10 9 10 12 15 7
3 3 4 4 4 4 5 5 5 7 7 8 7 6 7 7 8 8 8 8 7 7 8 8 8 8 6 6 6 7 9 7 7 7 7 6 7 7 7 7 7 5 6 5 6 6 5 4 3 3 5 4 5 7 9 17 16 16 16 12 6 7 6 6 7 9 10 11 7 6 5 11 17 19 19 20 20 20 20 13 12 12 12 14 13
3 4 5 5 5 5 6 5 5 5 5 5 4 6 6 7 6 5 5 6 7 7 8 7 6 6 6 6 7 5 6 6 7 8 8 7 5 6 7 7 6 6 8 7 6 6 6 5 4 4 4 4 4 8 6 12 15 16 16 17 9 7 7 7 11 11 11 10 7 6 6 7 14 17 19 19 20 20 21 17 16 20 22 22 16
7 6 4 7 7 7 7 7 6 6 6 4 6 7 5 5 4 5 5 6 7 7 8 6 6 6 7 7 7 7 6 5 6 7 9 7 7 7 6 5 6 6 7 8 7 5 6 5 4 4 4 4 4 6 10 8 13 15 16 17 17 12 12 10 10 11 10 7 6 7 7 8 10 13 15 17 18 20 19 17 23 24 24 25 21
3 5 7 5 8 7 8 7 6 6 5 5 7 8 6 6 6 6 6 5 6 6 6 7 6 6 6 6 6 6 6 6 7 7 7 8 7 7 7 6 6 6 6 5 5 5 5 5 5 4 3 3 3 2 7 9 8 13 15 17 18 18 17 12 11 11 10 7 6 7 5 4 9 12 15 17 18 19 15 21 22 23 23 21 14
6 6 5 3 7 9 8 7 6 5 4 4 4 9 7 7 6 6 7 7 6 8 8 7 7 7 7 6 6 6 6 6 7 8 8 7 8 8 7 6 6 6 6 6 5 5 5 5 5 5 4 4 4 4 3 7 13 12 15 16 17 17 17 18 14 12 12 11 12 14 14 14 16 17 18 18 16 16 16 17 19 20 19 12 11
6 6 6 5 7 7 8 9 6 4 4 3 3 7 10 6 6 6 7 7 8 9 8 7 7 6 6 7 7 6 6 6 7 6 7 7 9 7 6 7 6 6 6 6 5 5 5 5 5 4 4 4 4 4 4 4 7 8 10 13 15 14 14 15 14 13 16 17 17 15 14 12 10 8 6 5 6 7 12 15 17 16 9 9 10
7 7 8 8 8 8 8 8 8 3 4 4 5 2 6 6 7 6 7 8 9 8 8 7 7 7 7 6 8 7 7 6 6 6 5 5 6 6 6 6 6 5 5 5 5 5 5 5 4 4 4 4 4 4 3 3 3 3 3 3 4 6 7 8 7 7 7 6 6 5 6 8 8 10 10 11 10 10 9 8 6 7 7 9 9
6 8 6 7 6 7 9 8 6 4 3 4 5 6 6 6 5 6 7 9 8 7 7 7 7 7 7 6 6 8 8 6 5 5 5 5 4 4 5 6 6 6 6 5 5 5 5 5 4 4 4 3 3 3 3 3 3 3 3 2 2 2 2 2 3 4 4 4 4 4 4 3 2 3 3 2 3 3 5 5 5 5 6 7 8
9 8 7 7 9 8 7 8 6 4 4 5 6 5 4 6 6 6 8 9 8 9 9 8 7 6 6 6 6 6 6 6 6 4 3 2 4 4 4 3 2 1 2 4 5 4 3 2 2 3 4 3 2 2 2 2 2 5 3 2 2 2 2 2 5 8 4 3 2 2 3 2 3 4 4 6 6 6 6 6 6 6 6 7 7
5 7 8 9 8 9 9 8 5 4 4 5 6 5 4 4 4 6 7 9 9 8 8 6 5 6 5 5 5 5 4 5 6 5 5 5 8 8 4 2 2 3 6 5 2 1 1 2 2 1 1 1 1 2 5 6 6 7 8 8 7 6 7 5 5 9 6 6 6 6 6 6 7 6 7 7 7 7 7 8 7 8 7 8 8
11 11 10 11 10 8 8 9 6 5 6 7 8 5 5 3 4 4 7 9 9 6 5 5 5 5 6 5 5 5 4 4 5 5 6 7 7 7 11 9 7 7 6 7 9 8 7 5 3 3 2 3 2 3 4 3 3 2 3 4 5 6 7 9 11 8 6 6 6 6 6 6 6 7 7 7 6 6 7 7 7 7 8 8 8
Wind_Direction
134 140 207 197 188 185 187 188 194 193 195 194 194 196 194 189 183 185 176 172 173 170 175 169 170 163 174 186 182 168 162 145 159 158 158 179 238 183 169 157 148 147 145 137 152 152 150 146 146 158 159 153 157 162 148 147 143 138 128 129 131 126 123 131 127 124 122 109 97 95 88 78 81 80 85 81 82 89 90 95 98 99 91 79 68
253 231 188 184 190 184 184 191 190 192 199 195 196 193 190 189 188 183 170 177 182 180 176 183 184 181 171 188 151 158 157 170 175 179 158 156 212 178 165 160 156 152 152 143 144 143 136 145 152 154 159 152 157 143 126 120 123 130 130 114 124 135 141 152 148 134 136 144 139 131 113 106 95 95 86 77 76 77 77 83 92 88 87 83 81
252 243 197 191 185 188 191 196 200 205 197 197 195 189 187 188 191 188 183 178 186 182 177 184 182 176 184 159 162 146 109 97 115 117 141 167 186 175 158 178 160 150 155 155 146 153 151 150 155 159 155 147 142 148 140 134 146 147 150 142 138 135 139 159 161 174 148 148 135 132 151 146 148 126 101 76 70 68 81 79 75 80 75 79 84
249 240 214 186 189 192 196 199 201 199 197 193 193 192 189 191 190 185 180 181 185 180 180 169 127 100 69 107 102 121 149 117 109 99 82 130 182 182 169 178 169 168 165 153 159 158 163 159 152 157 163 159 146 146 153 155 159 161 152 144 141 143 163 175 186 217 170 152 164 201 169 170 153 178 149 98 75 60 64 87 82 90 90 93 98
260 257 214 184 191 202 200 199 191 195 198 195 192 191 191 191 188 184 178 180 181 174 170 133 127 116 105 97 107 97 96 141 147 159 163 164 164 182 183 172 176 179 173 161 152 165 178 156 158 153 160 164 154 151 158 165 170 168 159 151 162 157 162 172 191 212 200 205 179 134 148 206 206 143 141 131 157 143 68 68 82 101 115 104 103
248 255 252 208 203 202 198 194 196 201 202 200 194 194 188 186 185 182 177 176 176 181 167 157 161 155 152 158 169 174 171 180 189 180 171 178 192 150 107 144 185 195 185 168 150 158 180 167 144 152 160 161 160 159 156 161 171 174 170 161 166 170 161 166 179 204 236 227 285 316 339 267 147 156 167 163 130 71 122 117 113 104 115 123 121
229 243 245 236 215 202 199 197 199 202 204 192 194 193 190 188 186 183 178 175 178 176 168 167 167 173 179 180 172 179 175 188 185 171 169 168 157 152 151 149 169 195 221 180 146 153 165 168 159 163 165 159 161 159 167 172 174 175 168 169 171 165 167 171 177 179 187 248 248 275 299 303 140 146 195 120 166 170 193 170 167 181 170 152 149
240 238 236 231 224 208 209 201 200 204 192 187 190 190 192 190 185 182 179 181 176 168 175 183 178 178 186 184 177 183 188 176 178 171 156 136 147 152 143 142 144 193 198 183 134 147 162 164 160 157 158 166 167 179 177 177 170 170 173 174 171 176 176 178 171 173 183 189 184 202 184 146 156 312 154 172 154 160 177 171 176 193 200 196 174
242 243 240 224 223 216 209 197 198 194 189 190 190 190 191 192 190 186 187 180 171 170 177 188 188 181 185 189 183 189 184 165 158 132 135 146 144 136 148 145 161 163 185 161 156 156 161 163 160 165 168 159 180 183 176 175 174 169 175 176 177 178 185 183 171 177 196 181 163 168 156 149 158 48 157 135 153 155 160 177 176 174 214 196 188
256 260 260 249 233 219 205 197 185 189 188 189 186 187 190 190 191 187 188 177 172 177 182 186 192 181 191 193 180 171 148 123 147 150 147 154 158 162 158 165 167 162 164 173 157 162 155 150 162 175 176 176 182 181 170 169 171 174 180 181 178 179 192 188 183 178 193 167 186 157 155 144 146 161 191 180 135 188 169 183 176 173 186 184 179
245 245 246 248 246 218 183 193 191 186 187 188 186 188 188 189 190 191 189 177 175 184 187 191 194 193 196 196 196 182 156 152 156 161 158 161 167 168 167 174 168 162 158 171 157 162 160 159 177 184 182 179 180 171 174 176 176 176 174 177 183 188 191 185 193 186 183 170 182 176 172 174 176 184 185 186 183 167 152 164 167 185 186 160 187
283 262 249 210 205 192 189 194 189 186 186 189 187 187 190 192 192 192 191 183 177 185 189 188 193 197 204 203 195 174 168 171 177 174 172 174 175 171 172 163 168 153 156 156 165 171 158 162 178 182 184 179 181 177 173 177 173 173 178 183 187 191 193 188 195 186 186 174 179 186 186 190 198 200 177 179 186 182 170 159 165 160 153 162 126
261 269 249 220 216 194 195 196 188 189 192 190 190 192 200 203 198 194 204 198 180 183 190 189 188 193 201 206 199 183 174 179 181 177 173 175 176 169 165 176 165 166 178 172 181 174 161 161 178 186 184 184 179 175 174 169 169 173 178 181 183 187 192 193 188 187 177 179 183 172 63 109 47 19 149 168 165 146 156 142 139 163 191 172 155
235 244 242 231 209 208 204 196 193 191 189 188 188 192 199 204 205 200 204 205 192 184 190 195 196 198 200 204 191 173 181 184 190 186 183 182 178 178 178 179 176 182 173 183 170 167 167 172 182 186 179 173 173 171 162 161 163 176 174 183 178 180 174 185 176 137 149 62 77 130 108 70 53 49 84 122 135 151 154 149 141 138 33 188 138
235 246 241 231 217 209 204 200 195 192 188 188 189 194 198 202 202 200 201 205 199 187 191 199 198 194 193 195 179 180 182 184 193 185 181 187 188 183 183 180 182 178 174 167 150 160 159 164 175 173 160 160 161 158 150 158 169 165 165 151 148 148 145 162 130 127 112 110 109 110 115 87 72 65 79 84 99 138 141 145 149 156 182 213 213
223 235 238 226 219 207 202 197 193 193 192 193 194 195 201 203 199 199 204 204 205 185 193 198 197 190 195 194 192 183 181 181 182 180 191 199 186 185 188 188 191 173 153 144 154 151 152 159 158 155 149 157 162 157 156 163 162 163 147 143 126 88 132 120 119 112 107 109 110 109 115 96 77 68 59 69 65 50 101 138 156 167 175 205 202
235 233 228 209 192 203 204 196 193 192 193 196 196 196 200 195 196 199 203 207 207 192 194 202 201 196 198 198 196 188 188 186 186 186 188 186 177 185 194 185 141 146 153 152 148 149 149 153 157 152 154 156 155 156 159 154 152 151 144 134 132 136 131 121 114 116 110 109 107 103 104 104 97 96 97 97 90 92 100 116 128 215 251 258 221
234 239 228 204 196 198 197 200 197 194 193 194 197 196 199 198 195 199 202 208 210 197 194 199 201 195 194 196 195 191 189 190 190 187 181 176 175 184 161 146 185 166 150 149 142 140 146 155 151 149 149 155 155 154 151 145 147 140 130 129 130 137 124 112 101 105 110 107 99 88 92 109 107 111 98 87 102 107 125 142 166 205 258 249 264
243 229 214 202 200 198 196 197 196 196 195 195 194 193 194 199 200 200 204 207 208 205 195 198 201 194 196 195 193 189 188 188 186 168 167 176 178 184 181 168 141 154 158 162 157 146 151 156 151 150 150 152 150 148 147 148 149 135 135 126 132 138 126 115 107 109 105 113 106 109 108 108 111 102 106 108 110 126 137 149 150 200 222 252 251
221 199 200 200 200 196 192 188 188 192 193 195 194 193 197 199 200 203 205 207 208 208 199 199 197 193 195 185 193 193 191 189 182 165 174 183 190 178 170 168 177 164 167 169 171 164 163 158 157 152 151 151 150 148 152 147 144 136 135 131 133 128 118 119 121 108 105 103 125 133 139 136 131 121 124 135 139 134 149 165 171 202 217 236 240
216 217 213 203 195 185 184 181 179 181 189 195 200 202 202 202 205 202 203 202 203 204 201 193 183 191 190 191 190 188 193 188 176 185 183 183 182 178 180 179 150 170 159 173 179 170 163 160 154 155 156 154 152 149 148 147 139 132 123 123 129 128 123 119 120 113 111 128 148 144 142 135 142 150 152 150 154 163 173 179 175 214 226 218 230
236 264 251 260 219 190 177 170 170 177 192 198 202 204 205 206 204 203 205 207 203 202 190 183 185 190 190 194 194 192 186 180 187 183 187 182 176 179 165 145 172 170 164 170 173 168 166 158 154 153 152 150 147 144 145 145 138 130 124 122 130 127 125 126 127 138 148 147 144 152 151 150 159 157 147 162 168 174 189 187 195 215 231 225 237
265 258 263 262 259 237 190 176 177 185 189 194 200 204 207 207 205 206 205 207 203 202 190 189 191 190 192 190 189 188 174 178 179 182 186 180 174 166 161 171 176 172 173 173 164 164 167 160 155 154 150 147 147 145 149 146 140 138 135 137 136 142 144 146 152 154 155 151 156 162 162 153 153 152 155 171 167 185 199 216 213 218 231 234 225
233 251 260 247 242 246 211 175 179 187 191 196 199 203 205 206 206 206 208 205 203 199 190 189 196 195 193 188 190 183 181 183 182 180 185 185 178 177 171 177 169 156 168 162 158 162 160 164 157 152 150 146 148 148 149 149 142 141 139 142 146 151 151 151 156 155 154 162 168 160 163 159 154 161 171 180 185 200 211 225 224 229 234 233 232
227 237 233 226 236 233 218 184 188 194 194 195 197 200 203 206 203 206 207 204 204 199 192 188 191 191 191 190 188 182 185 184 183 173 181 175 178 175 171 163 146 160 165 155 148 154 161 165 165 160 155 156 158 155 149 145 145 143 143 143 149 153 157 160 157 154 157 161 167 165 151 154 160 166 178 195 196 202 217 227 232 228 230 230 216
251 254 252 240 232 232 219 194 202 206 199 194 199 201 205 207 208 204 202 200 203 197 191 186 187 191 192 192 187 186 189 184 183 182 180 171 168 174 173 162 157 161 162 167 160 164 170 172 167 164 163 159 154 154 154 154 150 146 139 141 149 158 160 154 151 151 161 167 162 155 153 156 169 184 195 191 202 208 212 228 234 234 230 228 231
231 234 241 265 252 235 209 197 203 212 206 200 198 199 201 204 206 205 203 201 199 189 186 188 190 194 195 190 186 189 184 181 184 185 172 165 173 175 174 174 167 163 167 167 168 162 171 172 171 165 161 155 156 157 155 153 148 147 147 150 153 152 147 143 146 155 160 161 157 154 156 167 182 198 199 203 204 210 217 230 230 235 232 227 237
262 270 253 237 237 231 211 200 203 214 212 213 205 200 198 199 203 203 200 200 191 187 192 194 192 198 197 185 188 185 182 184 184 180 158 157 162 167 172 165 162 167 168 167 170 171 169 168 160 158 157 155 154 156 156 150 149 149 148 149 152 152 152 153 155 159 155 159 160 166 173 185 198 206 211 218 204 218 211 228 230 221 226 226 238
224 228 230 235 233 228 212 194 199 205 214 213 207 204 203 203 201 199 196 202 192 188 195 195 196 198 199 188 181 173 169 169 174 165 163 170 171 164 160 163 173 176 182 147 151 151 151 151 153 157 149 152 160 163 160 157 151 150 150 153 155 158 159 156 156 155 156 155 167 180 194 201 208 218 222 223 216 206 216 231 225 208 221 228 234
219 221 216 223 232 227 216 197 196 209 211 207 204 202 202 201 199 196 197 198 186 192 195 195 198 198 193 186 181 169 175 165 165 172 178 175 169 159 152 156 173 175 167 172 164 146 163 167 164 159 150 146 160 152 166 158 150 151 156 155 159 164 164 159 155 150 150 163 182 188 204 207 209 218 228 235 237 235 232 235 239 219 207 216 222
236 237 241 232 230 233 223 204 210 210 205 199 201 201 197 203 202 194 193 189 184 191 199 196 197 195 188 179 176 177 172 173 174 170 160 150 156 162 167 165 170 168 165 165 170 166 167 171 166 156 161 171 174 175 171 170 166 159 158 162 164 159 148 144 148 154 161 175 188 204 214 211 217 227 233 237 239 241 240 238 238 239 230 209 207
245 235 226 228 222 221 213 213 218 215 201 194 193 192 190 204 201 197 186 176 184 194 198 198 193 186 183 177 179 171 171 171 161 162 155 150 160 166 171 178 176 168 169 163 180 182 176 173 167 165 166 163 159 172 176 174 172 169 159 127 135 143 154 163 167 170 167 169 188 199 210 196 209 215 215 226 238 244 245 245 242 240 239 237 232
246 246 244 227 217 212 213 223 229 216 200 198 174 179 202 200 192 188 170 175 186 193 194 194 189 182 182 176 174 167 171 169 166 160 160 166 173 175 178 178 183 184 177 178 182 173 182 158 158 161 165 165 90 162 172 169 169 166 163 153 160 154 160 168 171 167 169 177 186 195 205 210 208 216 221 226 234 246 245 246 248 248 247 243 240
249 244 241 245 228 222 219 224 231 226 203 175 181 196 198 181 173 169 176 180 183 190 189 188 180 177 179 172 167 166 165 165 160 163 161 165 168 180 174 176 172 163 161 174 177 174 161 173 170 164 172 157 152 169 176 175 173 172 171 169 161 162 167 167 167 171 172 190 200 201 211 221 202 199 218 221 228 240 247 246 243 243 245 245 242
237 241 238 226 231 229 220 217 223 210 183 171 182 185 165 166 172 173 178 173 181 182 185 183 178 180 172 167 161 164 166 158 160 157 153 166 171 160 158 161 164 169 174 180 181 181 180 156 148 159 157 169 176 180 180 177 176 176 176 173 150 151 157 163 176 175 188 198 205 209 218 228 213 199 206 206 218 230 233 236 238 241 245 248 246
237 231 222 215 220 217 216 223 157 166 170 174 175 165 165 172 166 171 168 171 172 175 182 177 173 171 166 164 159 162 167 162 161 154 155 159 164 171 167 153 142 135 109 104 105 131 157 158 163 169 167 174 171 190 184 179 181 182 175 155 147 153 167 171 186 197 205 213 210 213 218 227 224 217 216 216 219 223 232 242 242 247 247 249 248
246 216 221 220 200 203 201 137 139 166 162 170 157 157 159 152 161 166 159 166 169 176 178 171 175 171 170 169 166 161 156 157 153 152 161 159 161 163 152 140 151 145 144 164 165 142 144 150 161 164 170 170 143 194 191 184 181 177 170 158 158 170 179 188 206 211 212 204 207 209 220 227 235 237 226 222 227 224 238 243 247 253 254 249 251
231 218 208 158 162 135 135 171 148 152 156 148 151 156 147 149 154 153 157 163 169 177 175 171 174 167 167 162 162 151 145 152 157 166 158 160 149 119 148 159 156 158 162 161 145 132 148 151 154 158 156 154 159 187 189 184 180 181 174 160 171 179 189 200 216 214 211 223 224 224 223 231 235 243 233 232 235 229 238 244 245 253 260 256 251
205 214 212 183 170 151 142 139 147 147 154 150 148 143 142 148 153 156 161 163 173 176 170 168 169 162 158 157 149 154 160 159 162 160 160 152 156 158 145 143 147 141 149 132 148 142 149 155 166 167 162 159 167 180 186 186 185 188 178 175 183 190 202 219 224 235 217 220 228 229 233 230 236 244 243 242 239 231 235 242 233 244 251 255 253
177 209 246 123 128 130 140 153 157 152 146 148 146 150 149 150 155 155 160 169 173 172 166 162 153 155 151 145 148 158 158 160 163 156 151 149 138 133 146 153 154 149 143 149 152 147 161 169 169 171 178 173 169 178 184 187 187 191 187 176 195 201 220 219 225 233 242 241 218 224 230 232 235 241 244 246 243 235 232 238 234 237 245 251 266
169 150 142 137 148 153 147 145 134 138 147 149 147 140 149 147 148 155 169 169 159 147 147 148 145 143 144 145 147 156 158 157 154 149 146 136 148 144 145 152 154 144 143 142 141 151 155 147 155 142 168 181 172 169 184 189 190 191 193 190 203 213 224 234 243 250 247 251 240 230 219 219 231 239 243 246 245 242 238 240 240 236 241 262 279
84 128 138 126 117 98 94 90 102 127 130 142 133 135 136 141 151 158 151 133 130 137 138 133 137 137 135 132 145 137 140 136 141 137 134 144 136 135 147 146 145 141 150 154 150 159 163 168 159 158 162 158 164 168 168 193 195 199 203 207 212 220 222 236 249 252 253 255 251 248 247 214 223 238 242 246 249 249 249 252 253 256 264 271 274
148 151 153 136 131 128 124 128 128 131 137 133 133 126 126 133 133 123 119 129 132 132 131 130 124 121 133 136 134 135 127 126 133 139 142 131 136 138 132 128 134 136 148 157 161 148 156 154 156 173 174 173 174 184 186 193 204 207 210 216 224 230 233 237 248 256 255 253 260 259 253 247 244 247 249 252 256 260 263 263 267 272 275 279 280
145 145 155 141 128 129 128 132 137 138 137 135 139 131 136 136 127 129 127 118 119 118 111 109 113 114 121 126 130 126 127 133 131 130 127 125 135 135 137 149 143 147 149 145 155 155 160 164 167 170 173 174 180 176 204 204 211 219 227 233 238 241 241 242 247 257 264 265 269 269 276 254 259 264 268 273 276 276 276 277 278 280 283 284 282
152 149 137 140 136 137 129 121 123 121 121 127 131 129 132 133 132 129 130 126 117 121 120 121 123 129 132 132 129 134 133 129 132 135 135 137 129 136 144 147 147 153 152 156 156 162 172 177 180 184 185 186 191 197 206 218 222 225 230 235 240 242 245 247 252 259 263 270 279 285 293 294 291 289 289 290 288 288 291 290 289 288 287 283 280
127 128 146 132 119 112 119 116 105 90 108 108 128 140 137 138 134 135 130 124 128 129 125 122 127 130 126 128 119 119 125 126 139 144 140 146 148 153 149 151 155 159 161 163 164 170 180 181 189 187 184 183 180 189 201 206 215 227 234 239 243 248 254 258 263 270 276 283 287 294 301 309 312 314 322 314 308 302 305 301 297 293 284 276 277
148 143 134 136 133 125 118 119 106 87 83 69 82 67 113 126 130 129 125 129 132 127 120 127 128 127 127 129 134 141 139 138 137 140 138 137 143 148 141 148 158 158 162 167 167 173 179 184 189 185 173 169 179 188 192 187 192 210 226 236 247 257 263 271 272 269 276 282 295 303 300 299 295 294 290 284 283 288 291 290 289 283 279 276 272
133 138 141 126 124 121 127 117 111 97 87 84 80 70 84 107 113 123 128 128 126 129 131 132 132 134 141 142 136 132 132 141 141 134 137 136 141 147 149 158 170 169 167 173 172 177 182 184 184 178 169 169 181 181 191 197 188 194 205 204 217 234 250 252 263 274 271 277 280 287 286 276 279 284 284 279 274 278 278 285 284 289 288 281 276
146 154 153 145 137 131 116 112 110 110 102 97 82 65 62 93 108 127 133 128 123 123 122 119 131 130 132 137 135 143 143 136 133 117 91 101 142 158 153 123 53 129 159 169 174 176 181 176 168 164 166 166 155 177 193 175 191 193 194 198 201 210 221 228 232 246 255 242 235 268 291 288 284 288 293 297 294 285 282 267 246 248 265 271 270
120 124 132 126 131 126 133 126 117 116 109 100 91 69 42 68 102 127 127 127 128 116 117 127 131 132 130 132 136 138 129 130 128 126 112 79 52 59 50 110 141 97 78 61 78 127 140 148 140 102 106 141 126 101 124 169 184 191 201 205 215 222 215 220 236 254 266 284 285 278 282 284 283 280 283 280 276 273 275 280 283 272 276 278 273
150 136 133 125 120 122 123 124 121 121 103 100 90 68 73 76 95 131 133 134 138 128 125 126 136 143 151 138 131 133 137 130 127 127 124 116 111 89 75 78 94 120 121 114 104 104 111 119 129 127 115 113 116 118 139 144 165 190 221 237 250 255 262 263 257 256 255 247 253 258 263 262 260 266 262 266 268 270 271 276 277 282 281 281 276